Terug naar catalogus

FENGYUN 1C DEB

ActiefPO
NORAD 32222·DEBRIS·🇨🇳 China

Gelanceerd May 10, 1999 vanaf Taiyuan Satellite Launch Center

Loading…

Volgende Passages (komende 24 uur)

TLE

VerouderdSource: Space-Track

Epoch: Aug 23, 2026, 04:34 UTC

1 32222U 99025CVU 26235.19078245  .00018352  00000-0  24473-2 0  9991
2 32222  99.0971 218.3990 0037239 156.4195 203.8730 14.79187835682849

Volg FENGYUN 1C DEB in realtime met AllMySat

Download on the App Store